Regional Weather Roundup
Issued by NWS

Home | Current Version | Previous Version | Graphics & Text | Print | Product List | Glossary On
Versions: 1 2 3 4 5 6 7 8 9 10 11 12 13 14 15 16 17 18 19 20 21 22 23 24 25 26 27 28 29 30 31 32 33 34 35 36 37 38 39 40 41 42 43 44 45 46 47 48 49 50
000
ASUS43 KLOT 290700
RWRIL

ILLINOIS REGIONAL WEATHER ROUNDUP
NATIONAL WEATHER SERVICE CHICAGO/ROMEOVILLE IL
200 AM CDT SUN MAR 29 2015

NOTE: "FAIR" INDICATES FEW OR NO CLOUDS BELOW 12,000 FEET WITH NO
SIGNIFICANT WEATHER AND/OR OBSTRUCTIONS TO VISIBILITY.

* THESE STATIONS ARE NOT UNDER NWS QUALITY CONTROL. THEY ALSO MAY NOT
  REPORT WEATHER SUCH AS PRECIPITATION OR FOG.

ILZ001-002-007-009-015-016-024-290800-
NORTHWEST ILLINOIS

CITY           SKY/WX    TMP DP  RH WIND       PRES   REMARKS
MOLINE         PTCLDY    31  18  58 S13       30.15F WCI  21
$$

ILZ003-004-008-010-011-017-018-290800-
NORTH CENTRAL ILLINOIS

CITY           SKY/WX    TMP DP  RH WIND       PRES   REMARKS
ROCKFORD       NOT AVBL
$$

ILZ005-006-012>014-019>023-290800-
NORTHEAST ILLINOIS

CITY           SKY/WX    TMP DP  RH WIND       PRES   REMARKS
CHICAGO-OHARE  PTCLDY    25  14  63 S7        30.23F WCI  17
CHICAGO-MIDWAY PTCLDY    28  13  53 S8        30.26F WCI  20
AURORA         PTCLDY    25  16  68 SE8       30.23F WCI  16
WAUKEGAN       NOT AVBL
DUPAGE AIRPORT CLEAR     24  14  65 S8        30.22F WCI  15
WHEELING       CLEAR     26  13  57 S9        30.25F WCI  17
NORTHERLY ISL    N/A     29  13  51 S7          N/A  WCI  22
$$

LMZ740>746-290800-
SOUTHERN LAKE MICHIGAN

STATION/POSITION SKY/WX   TEMP    WIND        PRES    VSBY  WAVE
                          AIR SEA DIR/SP/G                  HT/PER
                          (F)     (DEG/KT/KT) (MB)    (MI)  (FT/S)
HARRISON CRIB              30     190/ 14/ 15   N/A
BURNHAM HARBOR             29     190/  4/ 11   N/A
BURNS HARBOR               27     170/  9/ 12 1025.7F
MICHIGAN CITY              25     130/ 10/ 12   N/A
$$

ILZ025>027-034>036-040-047-049-050-058-095>099-290800-
WEST-CENTRAL ILLINOIS

CITY           SKY/WX    TMP DP  RH WIND       PRES   REMARKS
$$

ILZ028>032-037-038-041>044-048-051>054-059>061-290800-
CENTRAL ILLINOIS

CITY           SKY/WX    TMP DP  RH WIND       PRES   REMARKS
PEORIA         NOT AVBL
SPRINGFIELD    CLEAR     34  20  56 S15       30.25F WCI  24
TAYLORVILLE    NOT AVBL
$$

ILZ033-039-045-046-055>057-062-063-290800-
EAST-CENTRAL ILLINOIS

CITY           SKY/WX    TMP DP  RH WIND       PRES   REMARKS
CHAMPAIGN      CLEAR     27  18  69 SE8       30.28F WCI  19
RANTOUL*       CLEAR     28  21  76 SE5       30.28F WCI  22
MATTOON        CLEAR     29  18  63 S6        30.28F WCI  23
$$

ILZ079-100>102-290800-
SOUTHWEST ILLINOIS

CITY           SKY/WX    TMP DP  RH WIND       PRES   REMARKS
CAHOKIA*       CLEAR     34  21  59 SE9       30.27F WCI  27
$$

ILZ064>066-069>071-074>076-080>082-084>086-088>090-092>094-290800-
SOUTH-CENTRAL ILLINOIS

CITY           SKY/WX    TMP DP  RH WIND       PRES   REMARKS
CARBONDALE     CLEAR     30  16  56 SE6       30.31F WCI  24
$$

ILZ067-068-072-073-078-083-087-091-290800-
SOUTHEAST ILLINOIS

CITY           SKY/WX    TMP DP  RH WIND       PRES   REMARKS
$$

ABBREVIATIONS USED IN REMARKS
   TC - TEMPERATURE IN CELSIUS
  WCI - WIND CHILL INDEX
   HX - HEAT INDEX
  VSB - VISIBILITY
$$




USA.gov is the U.S. government's official web portal to all federal, state and local government web resources and services.